Tracking 26325 objects as of 30-Nov-2022
HD Live streaming from Space Station
objects crossing your sky now

COSMOS 1408 DEB

Track COSMOS 1408 DEB now!
10-day predictions


NORAD ID: 49915
Int'l Code: 1982-092PA
Perigee: 449.4 km
Apogee: 563.2 km
Inclination: 82.6 °
Period: 94.6 minutes
Semi major axis: 6877 km
RCS: Unknown
Launch date: September 16, 1982
Source: Commonwealth of Independent States (former USSR) (CIS)
Launch site: PLESETSK MISSILE AND SPACE COMPLEX (PKMTR)

Note: This is SATELLITE DEBRIS
aabbcc
Your satellite tracking list
Your tracking list is empty




NASA's NSSDC Master Catalog

Two Line Element Set (TLE):
1 49915U 82092PA  22333.36401223  .00037541  00000-0  14805-2 0  9993
2 49915  82.6135 116.1884 0082726 174.2044 186.0172 15.22204053 56854
Source of the keplerian elements: AFSPC